Weather History for Farmingdale, NY

Change the Weather History Date:

Monday, April 28, 2014

  Actual Average Record
Temperature  
Mean Temperature 53 °F -  
Max Temperature 63 °F 61 °F 70 °F (2003)
Min Temperature 44 °F 44 °F 37 °F (2012)
Degree Days  
Heating Degree Days 12    
Growing Degree Days 3 (Base 50)    
Moisture  
Dew Point 35 °F    
Average Humidity 53    
Maximum Humidity 77    
Minimum Humidity 30    
Precipitation  
Precipitation 0.00 in - - ()
Sea Level Pressure  
Sea Level Pressure 30.08 in    
Wind  
Wind Speed 8 mph (NW)    
Max Wind Speed 15 mph    
Max Gust Speed 18 mph    
Visibility 10 miles    
Events      
Averages and records for this station are not official NWS values.
T = Trace of Precipitation, MM = Missing Value Source: NWS Daily Summary

Daily Weather History Graph

Daily Weather History Graph

Search for Another Location

Airport:

Trip Planner

Search our weather history database for the weather conditions in past years. The results will help you decide how hot, cold, wet, or windy it might be!

Date:

Astronomy

Apr. 28, 2014 Rise Set
Actual Time 5:56 AM EDT 7:46 PM EDT
Civil Twilight 5:26 AM EDT 8:16 PM EDT
Nautical Twilight 4:51 AM EDT 8:52 PM EDT
Astronomical Twilight 4:12 AM EDT 9:30 PM EDT
Moon 5:32 AM EDT (4/28) 7:21 PM EDT (4/28)
Length of Visible Light 14h 49m
Length of Day
13h 50m
Waning Crescent, 0% of the Moon is Illuminated
Apr 28
Waning Crescent
Apr 29
New
May 6
First Quarter
May 14
Full
May 21
Last Quarter

Hourly Weather History & Observations

Time (EDT) Temp. Windchill Dew Point Humidity Pressure Visibility Wind Dir Wind Speed Gust Speed Precip Events Conditions
1:53 AM 45.0 °F 40.6 °F 35.1 °F 68% 30.08 in 10.0 mi NNE 8.1 mph - N/A   Clear
4:53 AM 44.1 °F 42.5 °F 34.0 °F 68% 30.07 in 10.0 mi NW 3.5 mph - N/A   Clear
6:53 AM 44.1 °F 41.5 °F 35.1 °F 71% 30.11 in 10.0 mi WNW 4.6 mph - N/A   Clear
7:53 AM 48.0 °F - 35.1 °F 61% 30.10 in 10.0 mi North 10.4 mph - N/A   Clear
8:53 AM 51.1 °F - 34.0 °F 52% 30.10 in 10.0 mi NNW 11.5 mph 18.4 mph N/A   Clear
9:53 AM 53.1 °F - 33.1 °F 47% 30.10 in 10.0 mi NNE 13.8 mph - N/A   Clear
10:53 AM 55.0 °F - 33.1 °F 43% 30.09 in 10.0 mi NNW 10.4 mph - N/A   Clear
11:53 AM 57.0 °F - 30.9 °F 37% 30.07 in 10.0 mi NNW 6.9 mph 16.1 mph N/A   Clear
12:53 PM 57.0 °F - 33.1 °F 40% 30.05 in 10.0 mi North 6.9 mph - N/A   Clear
1:53 PM 59.0 °F - 30.9 °F 35% 30.05 in 10.0 mi WNW 8.1 mph - N/A   Clear
2:53 PM 60.1 °F - 30.0 °F 32% 30.03 in 10.0 mi North 6.9 mph - N/A   Clear
3:53 PM 62.1 °F - 30.0 °F 30% 30.02 in 10.0 mi NNE 8.1 mph - N/A   Clear
5:14 PM 57.2 °F - 33.8 °F 41% 30.04 in 10.0 mi SSW 13.8 mph - N/A   Clear
5:53 PM 57.0 °F - 33.1 °F 40% 30.04 in 10.0 mi SW 15.0 mph - N/A   Clear
6:53 PM 53.1 °F - 37.9 °F 57% 30.05 in 10.0 mi SW 10.4 mph 18.4 mph N/A   Clear
7:53 PM 50.0 °F - 37.9 °F 63% 30.07 in 10.0 mi SSW 5.8 mph - N/A   Clear
8:53 PM 50.0 °F - 37.9 °F 63% 30.09 in 10.0 mi SW 5.8 mph - N/A   Clear
9:53 PM 48.9 °F - 39.0 °F 69% 30.13 in 10.0 mi SSE 6.9 mph - N/A   Clear
10:53 PM 48.9 °F - 41.0 °F 74% 30.15 in 10.0 mi ESE 8.1 mph - N/A   Clear
11:53 PM 48.0 °F - 41.0 °F 77% 30.17 in 10.0 mi ESE 10.4 mph - N/A   Clear